Regional Weather Roundup
Issued by NWS

Home | Current Version | Previous Version | Graphics & Text | Print | Product List | Glossary On
Versions: 1 2 3 4 5 6 7 8 9 10 11 12 13 14 15 16 17 18 19 20 21 22 23 24 25 26 27 28 29 30 31 32 33 34 35 36 37 38 39 40 41 42 43 44 45 46 47 48 49 50
000
ASUS43 KLSX 260607
RWRMO

WEATHER SUMMARY FOR MISSOURI
NATIONAL WEATHER SERVICE SPRINGFIELD MO
1200 AM CST SUN FEB 26 2017

NOTE: "FAIR" INDICATES FEW OR NO CLOUDS BELOW 12,000 FEET WITH NO
       SIGNIFICANT WEATHER AND/OR OBSTRUCTIONS TO VISIBILITY.
       CURRENT SKY AND/OR WEATHER CONDITIONS ARE NOT AVAILABLE FOR
       CHILLICOTHE AND FARMINGTON.

MOZ001>031-035>038-043-044-053-054-260700-
...NORTHERN AND WESTERN MISSOURI...

CITY           SKY/WX    TMP DP  RH WIND       PRES   REMARKS
KANSAS CTY INT CLEAR     31  14  49 S12       29.98F WCI  22
6HR MIN TEMP:  26; 6HR MAX TEMP:  35;

KANSAS C DTWN  CLEAR     36  11  35 S8        30.00F WCI  30
6HR MIN TEMP:  34; 6HR MAX TEMP:  40;

LEE`S SUMMIT   CLEAR     33  13  43 S12       30.01F WCI  24
6HR MIN TEMP:  33; 6HR MAX TEMP:  38;

ST JOSEPH      CLOUDY    33  17  51 S9        29.98F WCI  25
6HR MIN TEMP:  29; 6HR MAX TEMP:  37;

CHILLICOTHE      N/A     30  12  47 SE5       30.03F WCI  25
6HR MIN TEMP:  25; 6HR MAX TEMP:  36;

KIRKSVILLE     PTCLDY    23  14  68 S8        30.03F WCI  14
6HR MIN TEMP:  22; 6HR MAX TEMP:  33;


$$
MOZ066>068-077>081-088>096-101>105-260700-
...SOUTHWEST MISSOURI...

CITY           SKY/WX    TMP DP  RH WIND       PRES   REMARKS
SPRINGFIELD    CLEAR     25  17  72 S5        30.07F WCI  19
6HR MIN TEMP:  25; 6HR MAX TEMP:  39;

JOPLIN         CLEAR     32  15  49 SE7       30.08F WCI  26
6HR MIN TEMP:  28; 6HR MAX TEMP:  43;

BRANSON        CLOUDY    32  12  43 CALM      30.10S

$$
MOZ032>034-039>042-045>050-055>058-069>072-260700-
...CENTRAL MISSOURI...

CITY           SKY/WX    TMP DP  RH WIND       PRES   REMARKS
COLUMBIA       PTCLDY    28  12  51 S7        30.08F WCI  21
6HR MIN TEMP:  28; 6HR MAX TEMP:  37;

JEFFERSON CITY CLEAR     26  16  65 SE5       30.11F WCI  20
6HR MIN TEMP:  25; 6HR MAX TEMP:  39;

ROLLA          CLEAR     28  12  51 SE9       30.08F WCI  19
6HR MIN TEMP:  23; 6HR MAX TEMP:  35;

SEDALIA        CLOUDY    31  15  52 S10       30.06F WCI  22
6HR MIN TEMP:  28; 6HR MAX TEMP:  40;

WHITEMAN AFB   PTCLDY    31  15  51 S13       30.03F WCI  21
WARRENSBURG    CLEAR     32  18  55 S6        30.04F WCI  26
OSAGE BEACH    CLEAR     25  15  66 SE3       30.11F

$$
MOZ051-052-059>065-260700-
...EAST CENTRAL MISSOURI...

CITY           SKY/WX    TMP DP  RH WIND       PRES   REMARKS
ST LOUIS INTL  CLEAR     31  16  54 CALM      30.13S
6HR MIN TEMP:  29; 6HR MAX TEMP:  37;

SPIRIT OF STL  CLEAR     23  16  74 CALM      30.13S
6HR MIN TEMP:  22; 6HR MAX TEMP:  37;

ST CHARLES     CLEAR     23  14  68 CALM      30.13S
6HR MIN TEMP:  21; 6HR MAX TEMP:  37;


$$
MOZ072>076-082>087-097>100-106>115-260700-
...SOUTH CENTRAL AND SOUTHEAST MISSOURI...

CITY           SKY/WX    TMP DP  RH WIND       PRES   REMARKS
CAPE GIRARDEAU CLEAR     26  21  81 CALM      30.16F
6HR MIN TEMP:  26; 6HR MAX TEMP:  39;

FARMINGTON     CLEAR     24  18  77 CALM      30.13F
6HR MIN TEMP:  24; 6HR MAX TEMP:  37;

POPLAR BLUFF   CLEAR     29  24  82 CALM      30.15F
6HR MIN TEMP:  28; 6HR MAX TEMP:  43;

WEST PLAINS    CLEAR     26  17  68 CALM      30.11F
6HR MIN TEMP:  25; 6HR MAX TEMP:  40;


$$


USA.gov is the U.S. government's official web portal to all federal, state and local government web resources and services.